Home > Weather > Lae > Past weeks

Flag for Papua New Guinea Weather for the Past 2 Weeks in Lae, Papua New Guinea

Now
77 °F

Overcast.


Feels Like: 78 °F
Forecast: 70 / 90 °F
Wind: No wind

Location: Moresby

Current Time: May 2, 2016 at 6:13:26 AM

Latest Report: May 2, 2016 at 5:00 AM


Visibility: N/A

Pressure: 29.77 "Hg

Humidity: 100%

Dew Point: 77 °F

Location of LaeLocation

Historic Weather in Lae — Graph

°F

Lae Temperature Yesterday

Maximum temperature yesterday: 88 °F (at 11:00 AM)
Minimum temperature yesterday: 75 °F (at 6:00 AM)
Average temperature yesterday: 85 °F

High & Low Weather Summary for the Past Weeks

 TemperatureHumidityPressure
High90 °F (Apr 19, 11:00 AM)100% (Apr 21, 2:00 AM)29.86 "Hg (Apr 21, 2:00 AM)
Low75 °F (Apr 17, 5:00 AM)63% (Apr 19, 11:00 AM)29.68 "Hg (Apr 23, 2:00 PM)
Average82 °F84%29.78 "Hg
* Reported Apr 17 5:00 AM — May 2 5:00 AM, Lae, Weather by CustomWeather, © 2016

Note: Actual official high and low records may vary slightly from our data, if they occured in-between our weather recording intervals... More about our weather records

Advertising

Lae Weather History for the Previous 24 Hours

Scroll right to see more
 ConditionsComfort  
Time TempWeatherWind HumidityBarometerVisibility
5:00 AM
Mon, May 2
77 °FOvercast.No wind100%29.77 "HgN/A
4:00 AM79 °FPassing clouds.No wind94%29.77 "HgN/A
3:00 AM79 °FPassing clouds.No wind94%29.77 "HgN/A
2:00 AM79 °FPassing clouds.No wind94%29.77 "HgN/A
1:00 AM79 °FPassing clouds.No wind94%29.77 "HgN/A
12:00 AM79 °FPassing clouds.No wind94%29.80 "HgN/A
11:00 PM
Sun, May 1
81 °FPassing clouds.No wind94%29.80 "HgN/A
5:00 PM86 °FScattered clouds.7 mph79%29.74 "HgN/A
4:00 PM88 °FPartly sunny.7 mph70%29.74 "HgN/A
3:00 PM88 °FPartly sunny.7 mph70%29.74 "HgN/A
2:00 PM88 °FScattered clouds.7 mph70%29.74 "HgN/A
1:00 PM86 °FPartly sunny.7 mph70%29.77 "HgN/A
12:00 PM88 °FPartly sunny.7 mph66%29.80 "HgN/A
11:00 AM88 °FPartly sunny.7 mph70%29.83 "HgN/A
10:00 AM86 °FScattered clouds.3 mph70%29.86 "HgN/A
9:00 AM82 °FPassing clouds.2 mph84%29.86 "HgN/A
6:00 AM75 °FPassing clouds.No wind100%29.86 "HgN/A
Weather by CustomWeather, © 2016

See weather overviewHow to use our weather pages